| time (UTC) | temp F | wind direction | speed MPH | gust MPH | rain 1hr in | rain 24hr in | rain mn in | humidity % | barometer mb |
| 20260906194039 | 101 | 210 | 2.0 | 11.0 | 0.00 | 0.00 | 0.00 | 36 | 1013.1 |
| 20260906193539 | 101 | 193 | 4.0 | 11.0 | 0.00 | 0.00 | 0.00 | 35 | 1013.1 |
| 20260906193109 | 101 | 178 | 2.0 | 5.0 | 0.00 | 0.00 | 0.00 | 38 | 1013.2 |
| 20260906192539 | 101 | 9 | 1.0 | 5.0 | 0.00 | 0.00 | 0.00 | 37 | 1013.3 |
| 20260906192039 | 101 | 178 | 2.0 | 5.0 | 0.00 | 0.00 | 0.00 | 37 | 1013.4 |
| 20260906191605 | 101 | 221 | 1.0 | 4.0 | 0.00 | 0.00 | 0.00 | 36 | 1013.4 |
| 20260906191045 | 100 | 205 | 1.0 | 6.0 | 0.00 | 0.00 | 0.00 | 35 | 1013.4 |
| 20260906190539 | 100 | 188 | 1.0 | 6.0 | 0.00 | 0.00 | 0.00 | 38 | 1013.5 |
| 20260906190103 | 100 | 238 | 2.0 | 10.0 | 0.00 | 0.00 | 0.00 | 38 | 1013.5 |
| 20260906185540 | 100 | 193 | 3.0 | 10.0 | 0.00 | 0.00 | 0.00 | 36 | 1013.6 |
| 20260906185040 | 100 | 0 | 1.0 | 4.0 | 0.00 | 0.00 | 0.00 | 39 | 1013.7 |
| 20260906184600 | 100 | 0 | 2.0 | 4.0 | 0.00 | 0.00 | 0.00 | 37 | 1013.8 |
| 20260906184039 | 99 | 195 | 1.0 | 5.0 | 0.00 | 0.00 | 0.00 | 39 | 1013.9 |
| 20260906183539 | 99 | 221 | 0.0 | 5.0 | 0.00 | 0.00 | 0.00 | 37 | 1014.0 |
| 20260906183057 | 99 | 193 | 0.0 | 5.0 | 0.00 | 0.00 | 0.00 | 37 | 1014.0 |
| 20260906182544 | 100 | 191 | 1.0 | 5.0 | 0.00 | 0.00 | 0.00 | 36 | 1014.2 |
| 20260906182043 | 100 | 108 | 1.0 | 9.0 | 0.00 | 0.00 | 0.00 | 36 | 1014.3 |
| 20260906181632 | 101 | 196 | 3.0 | 9.0 | 0.00 | 0.00 | 0.00 | 36 | 1014.4 |
| 20260906181040 | 101 | 61 | 1.0 | 7.0 | 0.00 | 0.00 | 0.00 | 35 | 1014.5 |
| 20260906180539 | 101 | 186 | 2.0 | 7.0 | 0.00 | 0.00 | 0.00 | 37 | 1014.5 |
| 20260906180100 | 101 | 153 | 2.0 | 8.0 | 0.00 | 0.00 | 0.00 | 37 | 1014.7 |
| 20260906175539 | 101 | 205 | 2.0 | 8.0 | 0.00 | 0.00 | 0.00 | 36 | 1014.8 |
| 20260906175039 | 101 | 187 | 2.0 | 8.0 | 0.00 | 0.00 | 0.00 | 36 | 1014.9 |
| 20260906174559 | 100 | 196 | 1.0 | 3.0 | 0.00 | 0.00 | 0.00 | 38 | 1015.0 |
| 20260906174044 | 99 | 212 | 0.0 | 3.0 | 0.00 | 0.00 | 0.00 | 39 | 1015.1 |
| 20260906173538 | 99 | 205 | 0.0 | 7.0 | 0.00 | 0.00 | 0.00 | 39 | 1015.2 |
| 20260906173100 | 99 | 187 | 1.0 | 9.0 | 0.00 | 0.00 | 0.00 | 38 | 1015.4 |
| 20260906172540 | 99 | 178 | 3.0 | 9.0 | 0.00 | 0.00 | 0.00 | 37 | 1015.5 |
| 20260906172042 | 99 | 177 | 1.0 | 6.0 | 0.00 | 0.00 | 0.00 | 38 | 1015.6 |
| 20260906171608 | 98 | 137 | 1.0 | 6.0 | 0.00 | 0.00 | 0.00 | 38 | 1015.6 |
| 20260906171039 | 99 | 178 | 2.0 | 5.0 | 0.00 | 0.00 | 0.00 | 38 | 1015.7 |
| 20260906170542 | 98 | 26 | 0.0 | 3.0 | 0.00 | 0.00 | 0.00 | 37 | 1015.7 |
| 20260906170108 | 98 | 254 | 1.0 | 3.0 | 0.00 | 0.00 | 0.00 | 39 | 1015.9 |
| 20260906165542 | 98 | 205 | 1.0 | 3.0 | 0.00 | 0.00 | 0.00 | 38 | 1015.9 |
| 20260906165040 | 99 | 221 | 1.0 | 3.0 | 0.00 | 0.00 | 0.00 | 39 | 1015.9 |
| 20260906164554 | 98 | 212 | 0.0 | 2.0 | 0.00 | 0.00 | 0.00 | 42 | 1015.9 |
| 20260906164040 | 97 | 221 | 0.0 | 8.0 | 0.00 | 0.00 | 0.00 | 42 | 1016.0 |
| 20260906163540 | 97 | 0 | 1.0 | 8.0 | 0.00 | 0.00 | 0.00 | 41 | 1016.0 |
| 20260906163102 | 97 | 291 | 0.0 | 2.0 | 0.00 | 0.00 | 0.00 | 42 | 1016.0 |
| 20260906162540 | 97 | 298 | 0.0 | 5.0 | 0.00 | 0.00 | 0.00 | 41 | 1016.0 |
| 20260906162039 | 96 | 193 | 0.0 | 5.0 | 0.00 | 0.00 | 0.00 | 42 | 1015.9 |
| 20260906161557 | 96 | 0 | 1.0 | 3.0 | 0.00 | 0.00 | 0.00 | 42 | 1015.9 |
| 20260906161043 | 96 | 9 | 1.0 | 7.0 | 0.00 | 0.00 | 0.00 | 44 | 1015.8 |
| 20260906160539 | 95 | 346 | 1.0 | 7.0 | 0.00 | 0.00 | 0.00 | 44 | 1015.9 |
| 20260906160100 | 95 | 336 | 0.0 | 3.0 | 0.00 | 0.00 | 0.00 | 46 | 1015.9 |
| 20260906155541 | 95 | 212 | 1.0 | 3.0 | 0.00 | 0.00 | 0.00 | 44 | 1015.9 |
| 20260906155039 | 94 | 221 | 0.0 | 4.0 | 0.00 | 0.00 | 0.00 | 47 | 1015.9 |
| 20260906154555 | 94 | 0 | 1.0 | 4.0 | 0.00 | 0.00 | 0.00 | 46 | 1015.9 |
| 20260906154041 | 94 | 221 | 1.0 | 2.0 | 0.00 | 0.00 | 0.00 | 46 | 1015.9 |
| 20260906153540 | 93 | 0 | 0.0 | 3.0 | 0.00 | 0.00 | 0.00 | 47 | 1015.8 |
| 20260906153057 | 92 | 193 | 1.0 | 4.0 | 0.00 | 0.00 | 0.00 | 48 | 1015.8 |
| 20260906152543 | 92 | 178 | 1.0 | 4.0 | 0.00 | 0.00 | 0.00 | 47 | 1015.8 |
| 20260906152043 | 92 | 319 | 1.0 | 4.0 | 0.00 | 0.00 | 0.00 | 48 | 1015.7 |
| 20260906151556 | 92 | 301 | 0.0 | 2.0 | 0.00 | 0.00 | 0.00 | 51 | 1015.7 |
| 20260906151040 | 91 | 196 | 0.0 | 2.0 | 0.00 | 0.00 | 0.00 | 52 | 1015.7 |
| 20260906150541 | 91 | 0 | 0.0 | 2.0 | 0.00 | 0.00 | 0.00 | 53 | 1015.8 |
| 20260906150108 | 90 | 0 | 0.0 | 2.0 | 0.00 | 0.00 | 0.00 | 56 | 1015.7 |
| 20260906145540 | 90 | 309 | 0.0 | 3.0 | 0.00 | 0.00 | 0.00 | 57 | 1015.7 |
| 20260906145042 | 89 | 196 | 0.0 | 4.0 | 0.00 | 0.00 | 0.00 | 59 | 1015.7 |
| 20260906144612 | 88 | 229 | 1.0 | 4.0 | 0.00 | 0.00 | 0.00 | 58 | 1015.7 |
| 20260906144039 | 87 | 0 | 0.0 | 2.0 | 0.00 | 0.00 | 0.00 | 62 | 1015.8 |
| 20260906143540 | 86 | 178 | 0.0 | 2.0 | 0.00 | 0.00 | 0.00 | 63 | 1015.8 |
| 20260906143109 | 85 | 0 | 0.0 | 2.0 | 0.00 | 0.00 | 0.00 | 64 | 1015.7 |
| 20260906142539 | 85 | 205 | 0.0 | 2.0 | 0.00 | 0.00 | 0.00 | 67 | 1015.6 |
| 20260906142041 | 84 | 291 | 1.0 | 2.0 | 0.00 | 0.00 | 0.00 | 69 | 1015.7 |
| 20260906141555 | 82 | 196 | 1.0 | 2.0 | 0.00 | 0.00 | 0.00 | 69 | 1015.6 |
| 20260906141039 | 82 | 178 | 0.0 | 2.0 | 0.00 | 0.00 | 0.00 | 72 | 1015.7 |
| 20260906140539 | 81 | 0 | 0.0 | 2.0 | 0.00 | 0.00 | 0.00 | 73 | 1015.7 |
| 20260906140059 | 80 | 0 | 0.0 | 2.0 | 0.00 | 0.00 | 0.00 | 74 | 1015.7 |
| 20260906135539 | 79 | 309 | 0.0 | 2.0 | 0.00 | 0.00 | 0.00 | 76 | 1015.7 |
| 20260906135039 | 78 | 0 | 0.0 | 1.0 | 0.00 | 0.00 | 0.00 | 76 | 1015.7 |
| 20260906134558 | 77 | 0 | 0.0 | 2.0 | 0.00 | 0.00 | 0.00 | 77 | 1015.6 |
| 20260906134040 | 76 | 0 | 0.0 | 2.0 | 0.00 | 0.00 | 0.00 | 79 | 1015.5 |
| 20260906133540 | 76 | 0 | 0.0 | 2.0 | 0.00 | 0.00 | 0.00 | 81 | 1015.4 |
| 20260906133112 | 75 | 0 | 0.0 | 1.0 | 0.00 | 0.00 | 0.00 | 82 | 1015.4 |
| 20260906132540 | 74 | 0 | 0.0 | 1.0 | 0.00 | 0.00 | 0.00 | 84 | 1015.4 |
| 20260906132039 | 73 | 9 | 0.0 | 1.0 | 0.00 | 0.00 | 0.00 | 85 | 1015.4 |
| 20260906131557 | 73 | 0 | 0.0 | 1.0 | 0.00 | 0.00 | 0.00 | 86 | 1015.3 |
| 20260906131039 | 73 | 0 | 0.0 | 1.0 | 0.00 | 0.00 | 0.00 | 86 | 1015.2 |
| 20260906130539 | 72 | 0 | 0.0 | 1.0 | 0.00 | 0.00 | 0.00 | 86 | 1015.1 |
| 20260906130105 | 72 | 0 | 0.0 | 1.0 | 0.00 | 0.00 | 0.00 | 87 | 1015.1 |
| 20260906125539 | 71 | 0 | 0.0 | 1.0 | 0.00 | 0.00 | 0.00 | 87 | 1015.0 |
| 20260906125039 | 71 | 0 | 0.0 | 1.0 | 0.00 | 0.00 | 0.00 | 86 | 1014.9 |
| 20260906124600 | 71 | 0 | 0.0 | 1.0 | 0.00 | 0.00 | 0.00 | 86 | 1014.9 |
| 20260906124039 | 71 | 0 | 0.0 | 1.0 | 0.00 | 0.00 | 0.00 | 86 | 1014.7 |
| 20260906123540 | 71 | 0 | 0.0 | 1.0 | 0.00 | 0.00 | 0.00 | 86 | 1014.7 |
| 20260906123058 | 71 | 26 | 0.0 | 2.0 | 0.00 | 0.00 | 0.00 | 86 | 1014.7 |
| 20260906122540 | 71 | 0 | 0.0 | 2.0 | 0.00 | 0.00 | 0.00 | 85 | 1014.5 |
| 20260906122040 | 71 | 0 | 0.0 | 2.0 | 0.00 | 0.00 | 0.00 | 85 | 1014.5 |
| 20260906121557 | 71 | 0 | 0.0 | 2.0 | 0.00 | 0.00 | 0.00 | 85 | 1014.4 |
| 20260906121039 | 71 | 41 | 0.0 | 1.0 | 0.00 | 0.00 | 0.00 | 85 | 1014.3 |
| 20260906120543 | 71 | 0 | 0.0 | 1.0 | 0.00 | 0.00 | 0.00 | 85 | 1014.4 |
| 20260906120058 | 71 | 0 | 0.0 | 1.0 | 0.00 | 0.00 | 0.00 | 84 | 1014.4 |
| 20260906115540 | 71 | 0 | 0.0 | 1.0 | 0.00 | 0.00 | 0.00 | 84 | 1014.3 |
| 20260906115039 | 71 | 0 | 0.0 | 1.0 | 0.00 | 0.00 | 0.00 | 84 | 1014.2 |
| 20260906114559 | 71 | 0 | 0.0 | 1.0 | 0.00 | 0.00 | 0.00 | 84 | 1014.2 |
| 20260906114039 | 71 | 0 | 0.0 | 1.0 | 0.00 | 0.00 | 0.00 | 84 | 1014.1 |
| 20260906113540 | 71 | 0 | 0.0 | 1.0 | 0.00 | 0.00 | 0.00 | 84 | 1014.1 |
| 20260906113056 | 71 | 0 | 0.0 | 1.0 | 0.00 | 0.00 | 0.00 | 84 | 1014.1 |
| 20260906112539 | 71 | 0 | 0.0 | 1.0 | 0.00 | 0.00 | 0.00 | 83 | 1014.0 |
| 20260906112039 | 71 | 0 | 0.0 | 1.0 | 0.00 | 0.00 | 0.00 | 83 | 1014.0 |
| 20260906111554 | 71 | 0 | 0.0 | 1.0 | 0.00 | 0.00 | 0.00 | 83 | 1014.0 |
| 20260906111040 | 71 | 0 | 0.0 | 1.0 | 0.00 | 0.00 | 0.00 | 83 | 1013.9 |
| 20260906110540 | 72 | 0 | 0.0 | 1.0 | 0.00 | 0.00 | 0.00 | 83 | 1013.9 |
| 20260906110050 | 72 | 0 | 0.0 | 1.0 | 0.00 | 0.00 | 0.00 | 83 | 1013.9 |
| 20260906105541 | 72 | 0 | 0.0 | 1.0 | 0.00 | 0.00 | 0.00 | 83 | 1013.9 |
| 20260906105039 | 72 | 9 | 0.0 | 1.0 | 0.00 | 0.00 | 0.00 | 82 | 1013.9 |
| 20260906104604 | 72 | 0 | 0.0 | 1.0 | 0.00 | 0.00 | 0.00 | 82 | 1013.8 |
| 20260906104044 | 72 | 0 | 0.0 | 1.0 | 0.00 | 0.00 | 0.00 | 82 | 1013.7 |
| 20260906103540 | 72 | 0 | 0.0 | 1.0 | 0.00 | 0.00 | 0.00 | 82 | 1013.7 |
| 20260906103059 | 72 | 334 | 0.0 | 1.0 | 0.00 | 0.00 | 0.00 | 82 | 1013.8 |
| 20260906102540 | 72 | 0 | 0.0 | 1.0 | 0.00 | 0.00 | 0.00 | 82 | 1013.8 |
| 20260906102040 | 72 | 0 | 0.0 | 0.0 | 0.00 | 0.00 | 0.00 | 81 | 1013.7 |
| 20260906101558 | 72 | 0 | 0.0 | 0.0 | 0.00 | 0.00 | 0.00 | 81 | 1013.7 |
| 20260906101040 | 72 | 0 | 0.0 | 0.0 | 0.00 | 0.00 | 0.00 | 81 | 1013.7 |
| 20260906100544 | 72 | 0 | 0.0 | 1.0 | 0.00 | 0.00 | 0.00 | 81 | 1013.8 |
| 20260906100051 | 72 | 0 | 0.0 | 1.0 | 0.00 | 0.00 | 0.00 | 81 | 1013.8 |
| 20260906095544 | 72 | 0 | 0.0 | 1.0 | 0.00 | 0.00 | 0.00 | 81 | 1013.7 |
| 20260906095040 | 73 | 0 | 0.0 | 1.0 | 0.00 | 0.00 | 0.00 | 81 | 1013.8 |
| 20260906094611 | 73 | 0 | 0.0 | 1.0 | 0.00 | 0.00 | 0.00 | 81 | 1013.7 |
| 20260906094040 | 73 | 0 | 0.0 | 1.0 | 0.00 | 0.00 | 0.00 | 81 | 1013.7 |
| 20260906093540 | 73 | 0 | 0.0 | 1.0 | 0.00 | 0.00 | 0.00 | 81 | 1013.8 |
| 20260906093128 | 73 | 0 | 0.0 | 1.0 | 0.00 | 0.00 | 0.00 | 81 | 1013.7 |
| 20260906092540 | 73 | 0 | 0.0 | 1.0 | 0.00 | 0.00 | 0.00 | 80 | 1013.8 |
| 20260906092040 | 73 | 0 | 0.0 | 1.0 | 0.00 | 0.00 | 0.00 | 80 | 1013.7 |
| 20260906091612 | 73 | 0 | 0.0 | 1.0 | 0.00 | 0.00 | 0.00 | 80 | 1013.7 |
| 20260906091040 | 73 | 0 | 0.0 | 1.0 | 0.00 | 0.00 | 0.00 | 80 | 1013.6 |
| 20260906090540 | 73 | 0 | 0.0 | 1.0 | 0.00 | 0.00 | 0.00 | 79 | 1013.6 |
| 20260906085539 | 73 | 0 | 0.0 | 1.0 | 0.00 | 0.00 | 0.00 | 79 | 1013.6 |
| 20260906085039 | 73 | 0 | 0.0 | 1.0 | 0.00 | 0.00 | 0.00 | 79 | 1013.7 |
| 20260906084554 | 73 | 0 | 0.0 | 1.0 | 0.00 | 0.00 | 0.00 | 79 | 1013.6 |
| 20260906084043 | 73 | 0 | 0.0 | 1.0 | 0.00 | 0.00 | 0.00 | 78 | 1013.5 |
| 20260906083542 | 74 | 0 | 0.0 | 1.0 | 0.00 | 0.00 | 0.00 | 78 | 1013.4 |
| 20260906083054 | 74 | 0 | 0.0 | 1.0 | 0.00 | 0.00 | 0.00 | 78 | 1013.5 |
| 20260906082540 | 74 | 0 | 0.0 | 1.0 | 0.00 | 0.00 | 0.00 | 78 | 1013.5 |
| 20260906082040 | 74 | 0 | 0.0 | 1.0 | 0.00 | 0.00 | 0.00 | 78 | 1013.4 |
| 20260906081600 | 74 | 0 | 0.0 | 0.0 | 0.00 | 0.00 | 0.00 | 76 | 1013.5 |
| 20260906081040 | 74 | 0 | 0.0 | 0.0 | 0.00 | 0.00 | 0.00 | 76 | 1013.5 |
| 20260906080540 | 74 | 0 | 0.0 | 0.0 | 0.00 | 0.00 | 0.00 | 76 | 1013.6 |
| 20260906075539 | 75 | 0 | 0.0 | 1.0 | 0.00 | 0.00 | 0.00 | 76 | 1013.5 |
| 20260906075039 | 75 | 0 | 0.0 | 1.0 | 0.00 | 0.00 | 0.00 | 76 | 1013.4 |
| 20260906074558 | 75 | 0 | 0.0 | 1.0 | 0.00 | 0.00 | 0.00 | 76 | 1013.4 |
| 20260906074039 | 75 | 0 | 0.0 | 1.0 | 0.00 | 0.00 | 0.00 | 76 | 1013.4 |
| 20260906073540 | 75 | 0 | 0.0 | 1.0 | 0.00 | 0.00 | 0.00 | 76 | 1013.4 |
| 20260906073053 | 75 | 0 | 0.0 | 1.0 | 0.00 | 0.00 | 0.00 | 76 | 1013.4 |
| 20260906072540 | 75 | 0 | 0.0 | 1.0 | 0.00 | 0.00 | 0.00 | 75 | 1013.3 |
| 20260906072039 | 75 | 0 | 0.0 | 1.0 | 0.00 | 0.00 | 0.00 | 74 | 1013.3 |
| 20260906071555 | 75 | 0 | 0.0 | 1.0 | 0.00 | 0.00 | 0.00 | 74 | 1013.3 |
| 20260906071040 | 76 | 0 | 0.0 | 1.0 | 0.00 | 0.00 | 0.00 | 74 | 1013.3 |
| 20260906070540 | 76 | 0 | 0.0 | 1.0 | 0.00 | 0.00 | 0.00 | 74 | 1013.2 |
| 20260906070057 | 76 | 0 | 0.0 | 1.0 | 0.00 | 0.00 | 0.00 | 74 | 1013.2 |
| 20260906065540 | 76 | 0 | 0.0 | 1.0 | 0.00 | 0.00 | 0.00 | 74 | 1013.3 |
| 20260906065039 | 76 | 0 | 0.0 | 1.0 | 0.00 | 0.00 | 0.00 | 73 | 1013.2 |
| 20260906064557 | 76 | 0 | 0.0 | 1.0 | 0.00 | 0.00 | 0.00 | 72 | 1013.4 |
| 20260906064040 | 76 | 0 | 0.0 | 1.0 | 0.00 | 0.00 | 0.00 | 72 | 1013.3 |
| 20260906063540 | 77 | 0 | 0.0 | 1.0 | 0.00 | 0.00 | 0.00 | 71 | 1013.3 |
| 20260906063101 | 77 | 0 | 0.0 | 1.0 | 0.00 | 0.00 | 0.00 | 71 | 1013.3 |
| 20260906062540 | 77 | 0 | 0.0 | 1.0 | 0.00 | 0.00 | 0.00 | 71 | 1013.4 |
| 20260906062039 | 77 | 0 | 0.0 | 1.0 | 0.00 | 0.00 | 0.00 | 71 | 1013.4 |
| 20260906061558 | 77 | 0 | 0.0 | 1.0 | 0.00 | 0.00 | 0.00 | 70 | 1013.4 |
| 20260906061039 | 78 | 221 | 0.0 | 1.0 | 0.00 | 0.00 | 0.00 | 69 | 1013.3 |
| 20260906060540 | 78 | 0 | 0.0 | 1.0 | 0.00 | 0.00 | 0.00 | 69 | 1013.3 |
| 20260906060057 | 78 | 0 | 0.0 | 1.0 | 0.00 | 0.00 | 0.00 | 69 | 1013.3 |
| 20260906055543 | 78 | 0 | 0.0 | 1.0 | 0.00 | 0.00 | 0.00 | 69 | 1013.4 |
| 20260906055040 | 78 | 0 | 0.0 | 1.0 | 0.00 | 0.00 | 0.00 | 69 | 1013.5 |
| 20260906054608 | 79 | 0 | 0.0 | 2.0 | 0.00 | 0.00 | 0.00 | 69 | 1013.4 |
| 20260906054040 | 79 | 0 | 0.0 | 2.0 | 0.00 | 0.00 | 0.00 | 69 | 1013.4 |
| 20260906053539 | 79 | 0 | 0.0 | 2.0 | 0.00 | 0.00 | 0.00 | 69 | 1013.5 |
| 20260906053057 | 79 | 0 | 0.0 | 1.0 | 0.00 | 0.00 | 0.00 | 69 | 1013.5 |
| 20260906052540 | 80 | 0 | 0.0 | 1.0 | 0.00 | 0.00 | 0.00 | 69 | 1013.4 |
| 20260906052044 | 80 | 0 | 0.0 | 1.0 | 0.00 | 0.00 | 0.00 | 69 | 1013.4 |
| 20260906051605 | 80 | 0 | 0.0 | 1.0 | 0.00 | 0.00 | 0.00 | 68 | 1013.5 |
| 20260906051040 | 80 | 0 | 0.0 | 2.0 | 0.00 | 0.00 | 0.00 | 66 | 1013.4 |
| 20260906050540 | 80 | 0 | 0.0 | 2.0 | 0.00 | 0.00 | 0.00 | 66 | 1013.2 |
| 20260906050108 | 80 | 178 | 0.0 | 2.0 | 0.00 | 0.00 | 0.00 | 66 | 1013.2 |
| 20260906045540 | 80 | 0 | 0.0 | 1.0 | 0.00 | 0.00 | 0.00 | 66 | 1013.2 |
| 20260906045041 | 80 | 205 | 0.0 | 1.0 | 0.00 | 0.00 | 0.00 | 66 | 1013.3 |
| 20260906044604 | 80 | 0 | 0.0 | 1.0 | 0.00 | 0.00 | 0.00 | 67 | 1013.3 |
| 20260906044039 | 80 | 0 | 0.0 | 1.0 | 0.00 | 0.00 | 0.00 | 67 | 1013.2 |
| 20260906043542 | 80 | 221 | 0.0 | 1.0 | 0.00 | 0.00 | 0.00 | 67 | 1013.3 |
| 20260906043104 | 79 | 0 | 0.0 | 2.0 | 0.00 | 0.00 | 0.00 | 67 | 1013.2 |
| 20260906042540 | 79 | 0 | 0.0 | 2.0 | 0.00 | 0.00 | 0.00 | 67 | 1013.3 |
| 20260906042040 | 79 | 178 | 0.0 | 2.0 | 0.00 | 0.00 | 0.00 | 67 | 1013.2 |
| 20260906041601 | 79 | 0 | 0.0 | 2.0 | 0.00 | 0.00 | 0.00 | 68 | 1013.3 |
| 20260906041040 | 79 | 0 | 0.0 | 2.0 | 0.00 | 0.00 | 0.00 | 67 | 1013.3 |
| 20260906040540 | 79 | 196 | 0.0 | 2.0 | 0.00 | 0.00 | 0.00 | 68 | 1013.2 |
| 20260906040105 | 79 | 0 | 0.0 | 2.0 | 0.00 | 0.00 | 0.00 | 67 | 1013.2 |
| 20260906035541 | 80 | 0 | 0.0 | 1.0 | 0.00 | 0.00 | 0.00 | 67 | 1013.3 |
| 20260906035040 | 80 | 0 | 0.0 | 1.0 | 0.00 | 0.00 | 0.00 | 67 | 1013.3 |
| 20260906034559 | 80 | 0 | 0.0 | 1.0 | 0.00 | 0.00 | 0.00 | 67 | 1013.3 |
| 20260906034039 | 80 | 0 | 0.0 | 1.0 | 0.00 | 0.00 | 0.00 | 66 | 1013.2 |
| 20260906033539 | 80 | 0 | 0.0 | 1.0 | 0.00 | 0.00 | 0.00 | 67 | 1013.2 |
| 20260906033055 | 80 | 0 | 0.0 | 1.0 | 0.00 | 0.00 | 0.00 | 66 | 1013.2 |
| 20260906032540 | 81 | 0 | 0.0 | 1.0 | 0.00 | 0.00 | 0.00 | 66 | 1013.2 |
| 20260906032040 | 81 | 0 | 0.0 | 1.0 | 0.00 | 0.00 | 0.00 | 66 | 1013.1 |
| 20260906031555 | 81 | 0 | 0.0 | 1.0 | 0.00 | 0.00 | 0.00 | 64 | 1013.1 |
| 20260906031041 | 81 | 0 | 0.0 | 1.0 | 0.00 | 0.00 | 0.00 | 64 | 1013.1 |
| 20260906030540 | 81 | 0 | 0.0 | 1.0 | 0.00 | 0.00 | 0.00 | 64 | 1013.0 |
| 20260906025540 | 82 | 0 | 0.0 | 1.0 | 0.00 | 0.00 | 0.00 | 64 | 1013.0 |
| 20260906025040 | 82 | 0 | 0.0 | 1.0 | 0.00 | 0.00 | 0.00 | 65 | 1012.9 |
| 20260906024602 | 82 | 0 | 0.0 | 1.0 | 0.00 | 0.00 | 0.00 | 65 | 1012.8 |
| 20260906024039 | 83 | 0 | 0.0 | 1.0 | 0.00 | 0.00 | 0.00 | 64 | 1012.7 |
| 20260906023540 | 83 | 0 | 0.0 | 1.0 | 0.00 | 0.00 | 0.00 | 63 | 1012.6 |
| 20260906023056 | 83 | 0 | 0.0 | 1.0 | 0.00 | 0.00 | 0.00 | 62 | 1012.5 |
| 20260906022539 | 83 | 0 | 0.0 | 1.0 | 0.00 | 0.00 | 0.00 | 61 | 1012.5 |
| 20260906022039 | 84 | 196 | 0.0 | 1.0 | 0.00 | 0.00 | 0.00 | 61 | 1012.5 |
| 20260906021556 | 84 | 0 | 0.0 | 1.0 | 0.00 | 0.00 | 0.00 | 61 | 1012.4 |
| 20260906021040 | 84 | 0 | 0.0 | 1.0 | 0.00 | 0.00 | 0.00 | 60 | 1012.3 |
| 20260906020540 | 84 | 0 | 0.0 | 1.0 | 0.00 | 0.00 | 0.00 | 61 | 1012.3 |
| 20260906020100 | 85 | 0 | 0.0 | 1.0 | 0.00 | 0.00 | 0.00 | 61 | 1012.2 |
| 20260906015539 | 85 | 0 | 0.0 | 1.0 | 0.00 | 0.00 | 0.00 | 60 | 1012.2 |
| 20260906015040 | 85 | 221 | 0.0 | 1.0 | 0.00 | 0.00 | 0.00 | 58 | 1012.1 |
| 20260906014633 | 86 | 0 | 0.0 | 1.0 | 0.00 | 0.00 | 0.00 | 58 | 1012.1 |
| 20260906014039 | 86 | 0 | 0.0 | 1.0 | 0.00 | 0.00 | 0.00 | 59 | 1012.0 |
| 20260906013539 | 86 | 0 | 0.0 | 2.0 | 0.00 | 0.00 | 0.00 | 57 | 1012.0 |
| 20260906013101 | 87 | 0 | 0.0 | 2.0 | 0.00 | 0.00 | 0.00 | 56 | 1011.8 |
| 20260906012540 | 87 | 0 | 0.0 | 2.0 | 0.00 | 0.00 | 0.00 | 55 | 1011.7 |
| 20260906012042 | 88 | 0 | 0.0 | 1.0 | 0.00 | 0.00 | 0.00 | 54 | 1011.6 |
| 20260906011605 | 88 | 178 | 0.0 | 2.0 | 0.00 | 0.00 | 0.00 | 55 | 1011.6 |
| 20260906011039 | 88 | 221 | 0.0 | 2.0 | 0.00 | 0.00 | 0.00 | 55 | 1011.6 |
| 20260906010539 | 89 | 325 | 1.0 | 2.0 | 0.00 | 0.00 | 0.00 | 55 | 1011.6 |
| 20260906010057 | 90 | 319 | 0.0 | 2.0 | 0.00 | 0.00 | 0.00 | 54 | 1011.5 |
| 20260906005540 | 90 | 325 | 0.0 | 2.0 | 0.00 | 0.00 | 0.00 | 52 | 1011.4 |
| 20260906005039 | 91 | 334 | 1.0 | 2.0 | 0.00 | 0.00 | 0.00 | 51 | 1011.3 |
| 20260906004614 | 91 | 0 | 0.0 | 2.0 | 0.00 | 0.00 | 0.00 | 50 | 1011.4 |
| 20260906004041 | 92 | 205 | 0.0 | 2.0 | 0.00 | 0.00 | 0.00 | 49 | 1011.4 |
| 20260906003540 | 93 | 196 | 0.0 | 2.0 | 0.00 | 0.00 | 0.00 | 48 | 1011.4 |
| 20260906003112 | 93 | 0 | 0.0 | 2.0 | 0.00 | 0.00 | 0.00 | 48 | 1011.5 |
| 20260906002540 | 94 | 243 | 1.0 | 2.0 | 0.00 | 0.00 | 0.00 | 47 | 1011.5 |
| 20260906002040 | 94 | 232 | 1.0 | 2.0 | 0.00 | 0.00 | 0.00 | 45 | 1011.5 |
| 20260906001557 | 95 | 232 | 0.0 | 2.0 | 0.00 | 0.00 | 0.00 | 45 | 1011.6 |
| 20260906001039 | 96 | 196 | 0.0 | 2.0 | 0.00 | 0.00 | 0.00 | 44 | 1011.6 |
| 20260906000545 | 96 | 178 | 0.0 | 2.0 | 0.00 | 0.00 | 0.00 | 44 | 1011.6 |
| 20260906000056 | 96 | 178 | 0.0 | 2.0 | 0.00 | 0.00 | 0.00 | 43 | 1011.6 |
| 20260905235542 | 97 | 0 | 0.0 | 3.0 | 0.00 | 0.00 | 0.00 | 41 | 1011.5 |
| 20260905235040 | 97 | 0 | 0.0 | 3.0 | 0.00 | 0.00 | 0.00 | 40 | 1011.6 |
| 20260905234554 | 98 | 196 | 1.0 | 4.0 | 0.00 | 0.00 | 0.00 | 40 | 1011.6 |
| 20260905234040 | 98 | 190 | 1.0 | 4.0 | 0.00 | 0.00 | 0.00 | 39 | 1011.6 |
| 20260905233540 | 98 | 193 | 1.0 | 5.0 | 0.00 | 0.00 | 0.00 | 38 | 1011.7 |
| 20260905233053 | 98 | 178 | 1.0 | 5.0 | 0.00 | 0.00 | 0.00 | 38 | 1011.7 |
| 20260905232539 | 99 | 178 | 2.0 | 9.0 | 0.00 | 0.00 | 0.00 | 38 | 1011.7 |
| 20260905232040 | 99 | 186 | 2.0 | 10.0 | 0.00 | 0.00 | 0.00 | 38 | 1011.6 |
| 20260905231557 | 99 | 177 | 2.0 | 10.0 | 0.00 | 0.00 | 0.00 | 38 | 1011.7 |
| 20260905231039 | 99 | 193 | 1.0 | 5.0 | 0.00 | 0.00 | 0.00 | 38 | 1011.7 |
| 20260905230539 | 99 | 178 | 1.0 | 6.0 | 0.00 | 0.00 | 0.00 | 39 | 1011.6 |
| 20260905230052 | 99 | 185 | 2.0 | 6.0 | 0.00 | 0.00 | 0.00 | 39 | 1011.6 |
| 20260905225539 | 99 | 178 | 3.0 | 8.0 | 0.00 | 0.00 | 0.00 | 38 | 1011.5 |
| 20260905225041 | 99 | 171 | 2.0 | 8.0 | 0.00 | 0.00 | 0.00 | 37 | 1011.6 |
| 20260905224610 | 99 | 178 | 4.0 | 8.0 | 0.00 | 0.00 | 0.00 | 37 | 1011.6 |
| 20260905224040 | 100 | 168 | 4.0 | 8.0 | 0.00 | 0.00 | 0.00 | 38 | 1011.6 |
| 20260905223539 | 100 | 167 | 2.0 | 7.0 | 0.00 | 0.00 | 0.00 | 36 | 1011.6 |
| 20260905223054 | 100 | 196 | 2.0 | 7.0 | 0.00 | 0.00 | 0.00 | 35 | 1011.5 |
| 20260905222540 | 100 | 175 | 4.0 | 6.0 | 0.00 | 0.00 | 0.00 | 37 | 1011.5 |
| 20260905222039 | 100 | 184 | 3.0 | 6.0 | 0.00 | 0.00 | 0.00 | 36 | 1011.5 |
| 20260905221611 | 100 | 178 | 2.0 | 8.0 | 0.00 | 0.00 | 0.00 | 36 | 1011.4 |
| 20260905221040 | 100 | 190 | 2.0 | 8.0 | 0.00 | 0.00 | 0.00 | 36 | 1011.3 |
| 20260905220539 | 100 | 178 | 3.0 | 7.0 | 0.00 | 0.00 | 0.00 | 36 | 1011.4 |
| 20260905220057 | 100 | 178 | 2.0 | 6.0 | 0.00 | 0.00 | 0.00 | 37 | 1011.3 |
| 20260905215540 | 100 | 129 | 1.0 | 7.0 | 0.00 | 0.00 | 0.00 | 37 | 1011.2 |
| 20260905215039 | 100 | 201 | 3.0 | 13.0 | 0.00 | 0.00 | 0.00 | 36 | 1011.3 |
| 20260905214603 | 100 | 182 | 4.0 | 13.0 | 0.00 | 0.00 | 0.00 | 36 | 1011.4 |
| 20260905214040 | 100 | 190 | 7.0 | 12.0 | 0.00 | 0.00 | 0.00 | 37 | 1011.3 |
| 20260905213540 | 100 | 164 | 2.0 | 8.0 | 0.00 | 0.00 | 0.00 | 36 | 1011.3 |
| 20260905213104 | 100 | 193 | 2.0 | 7.0 | 0.00 | 0.00 | 0.00 | 37 | 1011.3 |
| 20260905212540 | 100 | 171 | 3.0 | 11.0 | 0.00 | 0.00 | 0.00 | 36 | 1011.4 |
| 20260905212039 | 100 | 168 | 4.0 | 11.0 | 0.00 | 0.00 | 0.00 | 37 | 1011.4 |
| 20260905211601 | 100 | 169 | 5.0 | 11.0 | 0.00 | 0.00 | 0.00 | 37 | 1011.4 |
| 20260905211039 | 100 | 103 | 4.0 | 11.0 | 0.00 | 0.00 | 0.00 | 37 | 1011.5 |
| 20260905210538 | 100 | 178 | 5.0 | 6.0 | 0.00 | 0.00 | 0.00 | 36 | 1011.6 |
| 20260905210057 | 100 | 178 | 5.0 | 9.0 | 0.00 | 0.00 | 0.00 | 36 | 1011.7 |
| 20260905205539 | 100 | 178 | 5.0 | 11.0 | 0.00 | 0.00 | 0.00 | 36 | 1011.8 |
| 20260905205039 | 100 | 178 | 5.0 | 11.0 | 0.00 | 0.00 | 0.00 | 37 | 1011.9 |
| 20260905204557 | 100 | 178 | 1.0 | 6.0 | 0.00 | 0.00 | 0.00 | 39 | 1012.0 |
| 20260905204040 | 100 | 178 | 2.0 | 6.0 | 0.00 | 0.00 | 0.00 | 37 | 1012.2 |
| 20260905203540 | 100 | 171 | 1.0 | 7.0 | 0.00 | 0.00 | 0.00 | 38 | 1012.2 |
| 20260905203101 | 100 | 178 | 1.0 | 10.0 | 0.00 | 0.00 | 0.00 | 38 | 1012.4 |
| 20260905202539 | 100 | 221 | 3.0 | 10.0 | 0.00 | 0.00 | 0.00 | 37 | 1012.4 |
| 20260905202039 | 100 | 51 | 1.0 | 9.0 | 0.00 | 0.00 | 0.00 | 38 | 1012.6 |
| 20260905201615 | 100 | 169 | 7.0 | 9.0 | 0.00 | 0.00 | 0.00 | 39 | 1012.7 |
| 20260905201039 | 100 | 76 | 1.0 | 5.0 | 0.00 | 0.00 | 0.00 | 38 | 1012.7 |
| 20260905200540 | 100 | 188 | 2.0 | 5.0 | 0.00 | 0.00 | 0.00 | 38 | 1012.8 |
| 20260905200057 | 100 | 238 | 2.0 | 5.0 | 0.00 | 0.00 | 0.00 | 38 | 1012.9 |
| 20260905195539 | 100 | 173 | 2.0 | 8.0 | 0.00 | 0.00 | 0.00 | 37 | 1013.0 |
| 20260905195040 | 100 | 178 | 2.0 | 9.0 | 0.00 | 0.00 | 0.00 | 37 | 1013.0 |
| 20260905194558 | 100 | 183 | 3.0 | 9.0 | 0.00 | 0.00 | 0.00 | 37 | 1013.0 |